Theta_e
315 316 316 317 317 313 312 312 313 314 314 316 318 318 314 315 317 319 310 316 321 327 327 327 325 322 321 315 315 312 303 299 300 301 305 310 309 314 317 315 318 319 318 321 325
315 316 315 317 317 315 314 313 313 313 315 316 317 317 316 316 314 310 319 323 326 325 324 320 317 320 314 313 313 309 304 299 299 299 306 310 311 312 312 312 313 318 323 325 325
314 314 316 316 316 316 316 315 314 314 315 316 318 319 317 319 308 305 320 324 325 325 326 324 322 319 311 312 309 307 303 304 301 304 308 309 308 312 311 308 312 315 317 321 321
313 313 315 315 316 316 317 316 314 314 315 315 317 318 317 313 296 309 319 321 323 323 322 322 319 311 309 307 307 304 306 302 303 305 309 308 311 308 307 307 314 320 321 320 319
312 313 315 315 314 316 316 316 315 315 316 315 316 317 313 304 303 315 318 319 320 319 320 317 315 312 307 306 306 302 300 302 304 305 309 311 307 306 306 311 319 321 321 318 318
311 312 314 314 315 315 316 316 317 317 316 315 316 317 309 298 313 316 316 316 316 316 318 318 313 314 309 306 308 302 300 302 305 304 305 306 304 307 307 313 317 318 317 318 320
310 311 313 314 315 317 316 317 317 317 318 317 317 314 306 303 315 315 316 316 318 317 313 315 314 311 308 301 304 303 298 301 302 302 301 304 300 301 309 313 315 315 316 317 319
309 310 312 313 313 314 316 316 317 317 317 316 316 311 301 314 316 313 318 316 319 318 315 314 313 308 305 305 303 299 301 294 299 301 301 300 294 302 308 310 310 311 314 315 317
309 309 311 313 313 313 314 315 316 318 317 316 310 307 299 313 307 310 312 312 315 316 315 315 311 304 304 300 296 298 293 296 296 303 300 299 294 299 301 306 307 309 311 314 315
308 309 311 312 314 313 315 314 315 314 312 311 309 302 303 299 305 307 312 313 311 311 310 308 305 300 300 300 293 292 295 297 296 300 302 299 297 298 300 301 300 302 308 311 313
307 308 310 311 313 313 308 306 301 300 304 299 299 299 300 304 308 305 309 309 309 307 300 302 299 295 298 301 301 300 299 296 297 302 300 296 295 296 299 297 296 298 299 300 302
306 307 309 310 312 312 305 299 298 299 296 303 303 303 304 305 298 301 307 303 303 297 301 299 293 296 300 302 302 300 297 293 295 300 299 295 293 297 298 296 297 297 298 298 300
305 306 307 310 311 304 298 297 302 302 296 299 302 300 300 305 299 298 303 303 300 296 297 294 294 298 301 300 299 298 296 294 293 296 297 294 292 293 294 296 297 296 297 299 300
305 305 306 309 305 302 296 301 302 303 290 291 297 298 302 304 297 304 304 302 298 294 294 293 299 299 298 295 297 293 299 298 294 294 287 294 283 288 290 291 293 295 296 298 299
304 305 306 308 300 297 299 302 303 299 279 293 294 306 301 299 299 300 306 303 295 294 296 289 293 294 292 293 297 293 299 297 296 291 290 289 285 285 289 288 290 294 297 297 298
303 304 305 301 299 298 300 300 297 281 278 287 294 295 296 298 297 301 301 304 301 294 294 293 298 295 294 297 298 299 295 294 294 289 282 286 283 282 285 288 290 294 296 298 297
302 303 301 300 296 298 299 295 277 274 287 286 289 294 293 292 294 296 294 292 291 286 287 290 291 294 295 294 297 295 290 281 280 278 280 284 282 285 290 291 293 293 293 294 295
302 302 299 298 298 297 296 283 270 276 284 291 290 292 288 290 292 294 293 290 294 292 288 284 282 289 293 291 290 290 289 283 277 278 279 283 280 285 292 293 295 295 294 293 292
302 293 293 295 297 296 288 271 274 281 288 288 288 286 285 289 290 290 291 289 293 292 287 286 285 291 292 293 292 288 286 290 282 280 279 280 283 289 290 290 291 292 291 291 291
291 290 290 295 296 295 281 277 280 288 290 289 283 287 281 285 287 286 287 290 289 291 291 289 283 289 291 293 293 291 292 283 284 276 276 278 280 283 286 288 290 290 290 291 291
293 285 292 296 296 287 273 272 284 290 292 288 284 284 288 285 287 285 286 287 291 290 290 289 288 284 289 288 287 287 286 287 286 283 278 276 279 287 290 291 290 291 292 292 292
290 283 293 296 282 284 276 279 289 287 291 289 288 287 284 285 283 284 284 286 290 291 287 289 287 282 284 287 288 287 287 288 280 279 280 279 279 288 291 293 292 291 292 291 291
289 288 294 295 274 274 281 278 283 286 286 287 285 288 288 284 278 283 285 290 290 289 288 289 281 274 278 283 285 284 287 289 287 285 280 277 278 288 290 290 292 291 291 290 289
287 282 285 288 286 280 277 276 277 286 286 289 287 288 285 283 285 281 284 288 290 290 293 291 283 280 277 279 283 281 283 287 286 280 280 280 281 285 288 288 289 289 289 288 288
287 283 281 275 281 284 282 279 278 277 283 286 284 285 284 276 278 281 284 285 288 291 288 287 276 280 282 282 283 282 282 284 284 284 280 281 283 285 288 289 291 291 289 288 288
283 283 283 283 283 284 286 277 281 280 282 284 276 284 286 280 281 281 284 284 283 286 284 288 275 280 275 280 280 278 282 283 284 286 284 283 282 287 288 290 288 289 289 288 287
287 285 286 284 283 281 280 283 284 284 283 284 284 282 281 283 285 285 287 288 286 283 281 280 278 274 271 277 276 273 279 282 282 285 287 283 287 287 286 287 288 289 289 288 287
Wind_Speed
21 22 21 21 20 1 0 1 5 7 7 15 10 13 10 8 11 4 2 2 2 13 5 9 6 8 5 3 4 0 2 2 6 1 6 4 4 3 2 7 6 3 3 8 13
21 21 20 17 17 7 8 4 6 5 9 15 9 12 10 4 2 8 7 4 9 8 11 16 13 9 4 3 3 3 1 2 4 4 3 4 5 6 5 5 5 5 7 8 8
21 21 19 16 16 15 13 8 9 7 8 12 7 11 3 8 3 2 9 5 5 4 8 8 16 7 5 3 1 3 2 4 2 4 5 7 4 3 10 2 5 9 10 6 6
19 19 19 15 15 15 15 12 3 4 5 6 10 16 9 3 5 2 10 9 3 4 5 15 12 7 6 8 2 5 2 5 7 6 2 6 6 4 3 3 4 16 14 8 7
19 19 18 15 13 11 10 8 4 7 6 3 7 5 6 4 3 3 7 6 4 4 8 12 16 6 8 9 5 4 0 3 8 7 5 7 4 5 3 3 8 13 10 9 7
19 20 18 20 12 9 8 10 12 11 6 4 8 9 1 5 4 5 5 4 5 5 7 5 6 5 9 7 6 5 4 2 4 4 5 5 2 3 4 6 8 8 8 8 10
19 20 20 20 15 10 8 12 12 9 9 6 7 4 9 4 5 2 3 3 3 2 4 5 4 7 6 8 3 3 7 1 3 4 3 2 3 2 4 5 8 7 7 6 9
20 20 19 19 19 17 12 13 10 5 4 4 2 3 4 3 6 12 6 6 6 5 12 9 11 11 3 11 6 5 4 3 6 5 2 5 4 1 3 7 7 7 6 7 7
19 19 21 20 17 17 14 11 8 5 4 2 3 3 4 4 5 6 5 3 1 5 7 4 6 5 2 9 4 2 6 6 3 1 4 0 4 3 2 5 6 7 7 6 6
20 19 20 21 18 20 13 5 9 8 5 2 3 3 4 5 3 5 4 3 1 7 5 4 4 4 3 4 10 6 5 4 6 1 6 3 6 3 1 2 3 2 6 8 8
20 20 18 20 21 20 7 3 6 8 10 5 4 3 1 3 1 4 3 2 2 3 3 1 4 4 7 4 2 11 8 9 7 2 6 4 7 6 6 7 7 7 9 9 9
19 21 20 18 19 17 4 7 4 3 3 5 4 3 2 2 3 6 3 2 1 5 3 4 4 2 2 1 3 13 14 8 6 2 5 3 5 6 6 4 6 6 7 7 5
18 20 21 18 15 5 6 5 1 0 2 4 4 3 2 4 4 5 3 2 4 4 8 6 1 2 3 4 7 4 14 9 9 8 6 6 2 3 4 5 7 8 6 6 7
17 19 20 23 4 1 4 2 2 2 3 10 6 3 2 1 5 1 3 2 4 7 9 7 5 4 8 6 2 5 5 12 15 5 5 0 3 4 3 5 7 6 6 5 6
15 18 19 12 4 3 1 2 2 1 2 7 7 2 3 4 1 7 0 4 5 4 4 0 7 7 8 3 6 6 7 12 9 5 4 2 3 4 7 3 5 5 5 5 5
13 15 20 6 3 1 2 2 2 6 2 5 4 5 3 6 3 3 5 7 2 15 17 6 2 5 3 4 10 10 14 13 3 4 1 6 4 5 6 8 7 5 5 6 5
11 13 7 2 1 5 3 2 7 6 2 2 2 4 6 5 5 5 3 3 4 6 3 4 7 1 1 11 8 5 7 3 2 0 4 3 3 7 7 11 12 12 9 7 6
12 11 5 2 3 3 1 7 8 4 3 3 3 5 4 4 5 5 3 4 3 3 4 4 2 5 5 2 4 5 4 3 5 5 4 1 6 5 6 9 11 9 8 7 7
13 2 1 3 3 1 6 6 8 6 4 5 2 4 2 2 3 3 5 2 2 6 5 5 3 2 4 5 3 2 3 2 4 2 3 4 2 5 4 7 8 10 8 7 7
2 2 1 5 4 4 7 4 3 3 3 3 3 4 5 7 3 3 2 2 4 2 2 5 5 3 4 1 2 3 2 3 2 4 4 4 4 5 15 16 13 12 9 8 7
1 3 2 4 2 6 4 7 5 3 1 5 1 4 4 5 5 5 6 2 3 4 2 3 3 2 1 6 7 3 2 3 1 3 5 3 7 6 23 21 19 13 10 8 8
1 2 4 3 6 1 3 5 5 2 2 0 1 1 2 5 3 2 5 2 5 5 5 3 5 3 4 1 1 2 4 5 4 5 2 2 7 5 16 19 17 12 10 8 9
3 1 3 4 3 2 2 3 2 3 3 3 2 1 1 4 3 2 4 3 3 2 3 2 1 4 6 4 1 5 5 4 1 2 6 6 6 6 6 9 12 14 9 9 9
4 0 4 3 2 6 3 4 2 1 2 3 3 3 1 2 3 3 3 1 2 2 1 1 3 5 7 3 1 5 6 6 4 3 3 6 2 2 5 10 10 9 9 9 9
3 4 5 3 4 6 4 5 4 4 2 2 1 5 6 3 3 4 3 1 2 1 2 4 4 2 1 3 3 2 4 7 12 6 8 4 10 6 10 13 16 11 11 9 9
6 4 2 3 4 7 9 4 8 3 7 5 4 8 6 7 8 9 8 5 6 2 3 1 2 3 3 3 4 3 7 7 10 10 9 5 7 5 5 7 8 9 11 10 8
1 3 1 6 6 6 6 7 6 5 5 3 8 5 5 6 3 1 3 3 7 8 4 5 6 4 5 4 5 8 13 17 8 8 12 16 12 6 6 8 11 12 13 10 8
Wind_Direction
350 350 355 358 350 78 186 263 296 281 277 315 250 205 193 246 294 209 138 101 197 182 158 138 132 114 95 98 3 65 94 109 0 321 146 154 109 21 1 90 51 40 146 152 140
350 354 356 2 354 355 347 355 343 342 339 320 204 177 164 247 155 59 352 202 168 181 164 143 148 121 65 92 45 86 259 65 223 288 168 126 108 133 99 106 76 65 47 91 115
353 356 359 13 3 19 340 322 53 281 345 339 82 59 343 198 122 335 331 48 142 200 182 147 141 103 92 66 128 126 118 276 326 306 267 135 104 108 130 176 175 168 155 139 130
354 354 354 2 3 14 14 37 348 313 345 0 45 42 326 236 150 284 344 20 21 303 181 147 150 106 125 153 142 128 134 327 339 324 178 130 127 95 61 180 273 158 157 147 156
355 348 352 350 348 358 33 25 355 338 318 102 36 42 253 61 51 283 354 20 13 300 149 142 144 124 137 124 104 96 211 71 295 322 80 94 76 126 94 107 87 125 137 151 157
355 348 356 347 349 341 13 25 5 7 59 89 13 3 339 73 305 339 28 22 35 331 163 115 135 146 105 142 151 128 83 105 244 343 36 104 101 73 222 125 106 114 138 153 177
352 352 353 350 341 325 23 11 358 7 83 55 6 335 60 50 337 352 48 31 11 295 103 75 116 82 121 108 138 62 105 307 342 351 27 69 57 254 129 137 137 144 160 166 183
349 349 350 344 339 329 344 343 6 44 87 52 144 232 67 336 337 32 23 42 3 73 86 101 88 90 82 123 68 106 76 152 134 329 349 265 167 152 138 129 147 145 159 174 192
349 352 347 346 342 331 321 321 319 18 353 337 13 359 43 326 24 339 354 88 296 29 64 80 69 93 103 122 102 261 132 145 132 94 252 45 126 149 140 177 188 180 179 193 193
347 350 352 346 338 334 318 303 337 27 348 162 107 93 38 353 349 330 344 25 75 121 83 54 80 117 120 173 189 142 144 140 141 78 8 41 83 53 232 194 76 113 223 175 189
344 345 355 350 340 342 344 41 18 359 31 36 333 68 56 303 143 24 7 233 81 66 105 25 115 137 173 176 320 147 155 129 112 145 73 9 79 50 45 55 50 51 54 54 52
344 343 347 349 333 337 13 67 120 137 34 26 360 90 244 287 71 26 308 176 223 102 150 84 81 27 306 145 248 174 135 111 74 100 103 140 59 69 55 63 83 87 68 65 58
340 342 341 340 330 31 54 71 62 155 63 22 323 353 339 356 60 8 326 353 84 70 84 85 110 217 182 125 145 109 158 159 136 115 45 154 106 100 45 63 55 43 63 57 73
341 341 339 331 19 357 52 133 198 299 75 347 360 18 17 335 58 13 0 13 52 108 75 56 338 152 112 80 7 102 13 125 137 141 159 348 193 189 130 80 63 54 64 74 76
340 337 337 341 283 54 353 126 135 347 47 347 321 307 21 44 119 28 21 38 76 66 111 12 32 61 65 32 17 84 111 113 107 86 105 237 131 230 145 116 110 100 109 111 120
341 338 337 31 24 342 336 354 60 46 68 337 292 348 93 12 35 56 55 48 345 66 63 75 349 38 70 75 66 111 86 74 118 118 12 217 146 221 185 173 149 145 159 150 141
335 335 338 298 256 321 351 89 36 91 301 339 26 66 36 28 31 48 35 51 90 107 90 71 39 154 104 97 133 146 151 91 81 32 215 133 147 228 174 155 156 157 172 171 152
321 327 290 162 311 2 27 49 66 240 252 205 181 64 66 345 6 7 61 60 359 104 112 103 137 350 334 62 153 162 193 174 166 180 166 16 225 267 156 143 151 163 169 168 152
318 346 339 296 341 56 72 51 196 203 178 173 83 100 358 337 126 46 30 77 314 20 99 132 94 308 19 13 7 303 53 2 104 40 100 175 345 359 135 150 160 174 171 170 154
351 358 303 307 4 61 74 228 191 253 130 183 154 167 169 181 147 160 161 311 142 211 207 168 109 337 331 288 69 112 192 94 335 132 219 227 206 224 188 186 188 190 181 180 164
5 29 267 337 56 51 151 217 232 259 39 165 244 161 191 161 171 181 169 175 223 184 331 143 98 147 250 203 178 163 238 223 148 186 182 176 250 203 193 188 186 189 183 167 157
85 19 296 47 58 57 170 191 308 191 22 32 166 82 197 148 142 156 160 54 176 160 163 213 114 130 203 311 99 268 236 194 178 198 223 159 272 337 191 184 176 177 173 163 172
138 197 327 81 137 241 268 289 257 176 210 194 186 72 324 137 104 142 110 311 44 109 157 167 60 83 355 338 191 220 204 238 183 89 202 141 259 354 132 155 170 168 166 168 178
103 20 334 44 128 132 167 257 253 251 269 207 144 90 75 82 70 157 119 22 42 81 57 111 94 166 184 166 119 200 211 192 177 165 163 224 267 119 149 159 167 171 163 178 184
106 225 184 201 223 160 156 161 174 217 267 325 214 187 161 118 36 162 115 91 27 302 61 107 157 106 97 17 4 329 241 204 209 202 191 211 213 194 190 181 184 171 166 180 193
133 144 313 155 108 155 161 227 187 212 166 223 156 205 180 159 183 192 142 182 191 196 132 27 190 105 311 352 16 281 258 266 248 242 260 252 260 206 171 154 160 175 181 190 194
255 88 175 162 154 132 216 176 190 148 217 202 200 143 165 202 134 32 99 97 153 144 148 128 131 98 264 332 340 303 226 210 213 215 215 228 218 174 200 196 189 187 188 190 191